Location: Addison Town Hall
(32.9525°N, 96.8158°W)
Time: 02:11:47
(UTC+00:00)

Cosmos 1850 Rocket - Pass Details

Date: 08 March 2021
Orbit: 754 x 785 km, 74.0° (Epoch: 10 April)

Event Time Altitude Azimuth Distance (km) Brightness Sun altitude
Rises 12:14:58 0° 189° (S) 3,215 7.1 -7.4°
Reaches altitude 10° 12:17:20 10° 187° (S) 2,288 6.4 -6.9°
Maximum altitude 12:22:30 70° 104° (ESE) 806 4.4 -5.8°
Drops below altitude 10° 12:27:39 10° 22° (NNE) 2,286 6.7 -4.7°
Sets 12:30:01 0° 20° (NNE) 3,213 7.5 -4.2°
